[[{"header":{"parameterUnit":"m.s-1","parameterCategory":1,"la1":30.2991,"la2":30.254,"lo1":-89.0895,"lo2":-89.0444,"dy":0.0017,"dx":0.0017,"nx":28,"ny":28,"refTime":"2025-11-08T09:00:00:Z","depth":0,"parameterNumber":2,"parameterNumberName":"U-component_of_WINDS"},"data":[0,0,0,0,0,0,0,0,0,0,0,0,0,0,0,0,0,0,0,0,0,0,0,0,0,0,0,0,0,0,0,0,0,0,0,0,0,0,0,0,0,0,0,0,0,0,0,0,0,0,0,0,0,0,0,0,0,0,3.3477,3.3477,0,3.3515,3.3515,3.3516,3.3486,3.3485,3.3484,3.3483,3.352,3.3522,3.3524,0,0,0,0,0,0,0,0,0,0,0,0,0,3.3378,3.338,3.3477,3.3477,3.3478,3.3515,3.3515,3.3516,3.3487,3.3485,3.3484,3.3482,3.3519,3.3521,3.3524,0,0,0,0,0,0,0,0,0,0,0,0,0,3.3419,3.338,3.3477,3.3468,3.3467,3.3515,3.3515,3.3516,3.3487,3.3485,3.3483,3.3481,3.3518,3.3521,3.3524,3.3582,0,0,3.3534,3.3536,0,0,0,0,0,0,0,0,3.3417,3.3422,3.3468,3.3468,3.3468,3.3494,3.3494,3.3538,3.3487,3.3479,3.3483,3.348,3.3513,3.3516,3.3527,3.3584,3.3585,3.3535,3.3537,3.3538,3.3539,0,0,0,0,0,0,0,3.3414,3.3421,3.3492,3.3469,3.3469,3.3461,3.3465,3.3502,3.3506,3.348,3.3478,3.3483,3.3512,3.3524,3.3528,3.3586,3.3535,3.3537,3.3539,3.3541,3.3694,3.3696,0,0,0,0,0,0,3.3412,3.3419,3.349,3.3493,3.3437,3.3465,3.3469,3.3487,3.3506,3.3506,3.3485,3.3481,3.352,3.3524,3.3529,3.3599,3.3538,3.3541,3.3543,3.3692,3.3694,3.3696,0,0,0,0,0,0,3.341,3.3419,3.3489,3.3455,3.3464,3.3469,3.349,3.3489,3.3501,3.3509,3.3509,3.3496,3.3518,3.3525,3.357,3.3599,3.3542,3.3545,3.3689,3.3692,3.3695,3.3738,0,0,0,0,0,0,3.3407,3.3418,3.344,3.3456,3.3466,3.3529,3.3491,3.3491,3.3507,3.3504,3.352,3.3521,3.3517,3.3565,3.3573,3.3603,3.3548,3.3686,3.3691,3.3694,3.3734,3.3742,3.3749,0,0,0,0,0,3.3404,3.345,3.3441,3.345,3.3493,3.3531,3.3536,3.3531,3.351,3.3532,3.3537,3.3521,3.3595,3.357,3.3579,3.361,3.3684,3.3689,3.3694,3.373,3.374,3.3749,0,0,0,0,0,0,3.3436,3.3451,3.3442,3.3495,3.3512,3.3526,3.3553,3.3542,3.3565,3.356,3.3553,3.3557,3.3605,3.3612,3.3583,3.3668,3.3636,3.3643,3.3661,3.3671,3.3678,3.3675,3.3551,0,0,0,0,0,3.3449,3.3479,3.3491,3.3536,3.3545,3.3548,3.3564,3.3559,3.3576,3.3583,3.3592,3.3608,3.3636,3.3654,3.3679,3.3735,3.3739,3.3761,3.3769,3.3775,3.3781,3.3812,3.3822,3.3712,3.3712,3.3712,0,0,3.3476,3.3489,3.3507,3.3543,3.3555,3.3586,3.3554,3.3588,3.361,3.3588,3.3631,3.3639,3.3657,3.3708,3.3731,3.3715,3.3812,3.3781,3.3786,3.3788,3.3818,3.3828,3.3837,3.3715,3.3715,3.3714,0,0,3.3542,3.3554,3.3594,3.3608,3.3628,3.363,3.364,3.3656,3.366,3.3704,3.3688,3.3715,3.3762,3.3777,3.379,3.3864,3.385,3.3873,3.3912,3.3943,3.3951,3.3959,3.3986,3.3995,3.3878,3.3878,3.3879,0,3.3573,3.3619,3.3615,3.365,3.3667,3.365,3.369,3.3703,3.373,3.3742,3.3725,3.3785,3.3796,3.3851,3.3869,3.388,3.3891,3.387,3.3951,3.3958,3.3965,3.399,3.4,3.3881,3.3881,3.3881,3.388,0,3.3656,3.3689,3.3718,3.3747,3.3766,3.3804,3.3806,3.3826,3.382,3.3825,3.387,3.3883,3.3912,3.3925,3.3919,3.3979,3.3969,3.3952,3.392,3.3978,3.4002,3.4012,3.3885,3.3884,3.3883,3.3882,0,0,3.374,3.3768,3.3779,3.3792,3.3814,3.3839,3.3877,3.3906,3.3924,3.3944,3.3975,3.4017,3.4001,3.4017,3.4013,3.4039,3.4098,3.4019,3.4019,3.4033,3.4166,3.4179,3.419,3.409,3.4091,3.4093,3.4164,0,3.3807,3.3872,3.3871,3.3932,3.3962,3.3948,3.3981,3.3998,3.4004,3.403,3.4036,3.4066,3.4043,3.4052,3.4079,3.4085,3.4125,3.408,3.4118,3.4119,3.4113,3.4202,3.4215,3.4282,3.4174,3.4175,3.4176,0,3.3892,3.3917,3.3981,3.4001,3.4014,3.4043,3.407,3.4096,3.4116,3.4118,3.4137,3.4129,3.4168,3.4137,3.419,3.416,3.4175,3.4181,3.4184,3.4186,3.4151,3.4206,3.4303,3.4313,3.4191,3.419,3.4189,0,3.3947,3.3996,3.4042,3.4053,3.4077,3.4099,3.411,3.4128,3.4146,3.417,3.4182,3.421,3.4225,3.4247,3.4248,3.4225,3.4302,3.427,3.4304,3.4305,3.432,3.4319,3.442,3.4332,3.4331,3.4331,3.4331,0,3.4021,3.4061,3.4067,3.4094,3.4139,3.4138,3.4182,3.4191,3.4208,3.4237,3.4227,3.4254,3.4254,3.4282,3.4283,3.4327,3.4334,3.4337,3.4336,3.4337,3.4337,3.4346,3.4341,3.4334,3.4333,3.4333,3.4332,0,3.4089,3.4094,3.4143,3.4163,3.4169,3.4201,3.4217,3.4244,3.425,3.4287,3.4296,3.4304,3.4337,3.4341,3.4379,3.4379,3.4433,3.4427,3.4426,3.4425,3.4459,3.4456,3.4569,3.4584,3.4487,3.4488,3.4488,0,3.4135,3.4165,3.4189,3.4209,3.4221,3.4252,3.4272,3.4272,3.4293,3.4319,3.4343,3.4375,3.4401,3.4454,3.4464,3.4493,3.4488,3.4526,3.4493,3.4493,3.4489,3.4487,3.449,3.4532,3.4533,3.4534,3.4535,0,3.4216,3.4218,3.4246,3.4277,3.43,3.4323,3.4345,3.4362,3.4365,3.4389,3.4423,3.4443,3.4484,3.4516,3.4545,3.4556,3.4547,3.4546,3.4555,3.4556,3.4554,3.4555,3.4443,3.4543,3.4542,3.4541,3.4541,3.4541,3.4274,3.4301,3.4323,3.4355,3.4372,3.4394,3.442,3.443,3.4459,3.4492,3.4491,3.4529,3.455,3.4589,3.4603,3.4632,3.462,3.4633,3.4637,3.464,3.4643,3.455,3.4638,3.4637,3.4637,3.4637,3.4637,0,3.4355,3.4369,3.4399,3.4431,3.4457,3.4447,3.4471,3.4493,3.4527,3.4548,3.4574,3.4614,3.4646,3.466,3.4691,3.4712,3.4709,3.4721,3.4718,3.4721,3.4653,3.4641,3.4723,3.4723,3.4723,3.4723,3.4723,3.4723,3.44,3.4445,3.445,3.4505,3.4518,3.4556,3.4571,3.4591,3.4608,3.4653,3.468,3.4689,3.4707,3.4741,3.477,3.4773,3.4785,3.4798,3.48,3.4735,3.4726,3.4718,3.4707,3.4801,3.4801,3.4866,3.4866,3.4867]},{"header":{"parameterUnit":"m.s-1","parameterCategory":1,"la1":30.2991,"la2":30.254,"lo1":-89.0895,"lo2":-89.0444,"dy":0.0017,"dx":0.0017,"nx":28,"ny":28,"refTime":"2025-11-08T09:00:00:Z","depth":0,"parameterNumber":3,"parameterNumberName":"V-component_of_WINDS"},"data":[0,0,0,0,0,0,0,0,0,0,0,0,0,0,0,0,0,0,0,0,0,0,0,0,0,0,0,0,0,0,0,0,0,0,0,0,0,0,0,0,0,0,0,0,0,0,0,0,0,0,0,0,0,0,0,0,0,0,-10.0168,-10.017,0,-10.0394,-10.0397,-10.0399,-10.0303,-10.0298,-10.0292,-10.0287,-10.051,-10.0521,-10.0532,0,0,0,0,0,0,0,0,0,0,0,0,0,-9.9645,-9.9655,-10.0168,-10.017,-10.0173,-10.0394,-10.0397,-10.04,-10.0304,-10.0297,-10.0291,-10.0284,-10.0507,-10.052,-10.0533,0,0,0,0,0,0,0,0,0,0,0,0,0,-9.9872,-9.9658,-10.0167,-10.0152,-10.0153,-10.0393,-10.0397,-10.0401,-10.0305,-10.0297,-10.0289,-10.0281,-10.0502,-10.0518,-10.0535,-10.08,0,0,-10.0585,-10.0592,0,0,0,0,0,0,0,0,-9.9859,-9.9891,-10.0152,-10.0154,-10.0155,-10.0312,-10.0294,-10.0534,-10.0307,-10.0247,-10.0287,-10.0277,-10.045,-10.0471,-10.0531,-10.0811,-10.082,-10.0587,-10.0597,-10.0604,-10.0609,0,0,0,0,0,0,0,-9.9843,-9.988,-10.0257,-10.0155,-10.0158,-10.0132,-10.0155,-10.0339,-10.0392,-10.0252,-10.0245,-10.0274,-10.045,-10.0515,-10.0535,-10.0824,-10.0586,-10.0601,-10.0611,-10.0618,-10.1333,-10.1342,0,0,0,0,0,0,-9.9828,-9.9868,-10.025,-10.0264,-9.9984,-10.0148,-10.0174,-10.027,-10.0389,-10.04,-10.0281,-10.0269,-10.0491,-10.0516,-10.0543,-10.0863,-10.0604,-10.0619,-10.0629,-10.1324,-10.1335,-10.1345,0,0,0,0,0,0,-9.9818,-9.9863,-10.0241,-10.0064,-10.011,-10.0166,-10.0274,-10.0279,-10.0344,-10.0411,-10.0419,-10.0339,-10.0485,-10.052,-10.0738,-10.0869,-10.0627,-10.0642,-10.1314,-10.1328,-10.134,-10.1504,0,0,0,0,0,0,-9.9803,-9.986,-9.9963,-10.0068,-10.012,-10.0435,-10.0282,-10.0289,-10.0374,-10.036,-10.0468,-10.0478,-10.0482,-10.0714,-10.0754,-10.0887,-10.0655,-10.1302,-10.132,-10.1336,-10.1487,-10.1522,-10.1551,0,0,0,0,0,-9.9785,-9.9998,-9.9969,-10.0016,-10.0251,-10.0442,-10.0472,-10.0475,-10.0385,-10.0488,-10.0531,-10.0474,-10.0848,-10.0737,-10.0782,-10.0922,-10.1294,-10.1315,-10.1335,-10.1473,-10.1515,-10.155,0,0,0,0,0,0,-9.9904,-10.0011,-9.998,-10.0234,-10.0331,-10.0426,-10.0556,-10.0519,-10.0641,-10.0623,-10.0618,-10.0643,-10.0869,-10.0917,-10.0791,-10.1185,-10.1057,-10.1087,-10.1147,-10.1187,-10.1218,-10.1202,-10.0668,0,0,0,0,0,-9.9961,-10.011,-10.0194,-10.041,-10.046,-10.0501,-10.0584,-10.0578,-10.0676,-10.0716,-10.0775,-10.087,-10.1009,-10.11,-10.1231,-10.1493,-10.1515,-10.1612,-10.1644,-10.167,-10.1696,-10.1839,-10.1883,-10.1412,-10.1412,-10.1412,0,0,-10.0078,-10.0155,-10.0249,-10.0436,-10.051,-10.0663,-10.0535,-10.0701,-10.0814,-10.074,-10.0951,-10.0998,-10.1103,-10.1345,-10.1454,-10.1392,-10.1831,-10.1696,-10.1716,-10.1728,-10.1864,-10.1909,-10.1948,-10.1426,-10.1424,-10.1422,0,0,-10.037,-10.0443,-10.0632,-10.071,-10.0824,-10.085,-10.0895,-10.0998,-10.1027,-10.1239,-10.1187,-10.1319,-10.1559,-10.1637,-10.1708,-10.2032,-10.1984,-10.2074,-10.2241,-10.2381,-10.2418,-10.245,-10.2567,-10.2608,-10.21,-10.2101,-10.2101,0,-10.05,-10.0731,-10.0733,-10.0906,-10.0989,-10.0932,-10.1123,-10.1197,-10.1347,-10.1406,-10.1334,-10.1635,-10.1701,-10.1961,-10.2041,-10.21,-10.2151,-10.2062,-10.2413,-10.2446,-10.2476,-10.2587,-10.263,-10.2111,-10.211,-10.2109,-10.2108,0,-10.0886,-10.1047,-10.1185,-10.1337,-10.1436,-10.1616,-10.1644,-10.1743,-10.1729,-10.1762,-10.1979,-10.2057,-10.2205,-10.2265,-10.2252,-10.2524,-10.2482,-10.2412,-10.2283,-10.2531,-10.2635,-10.2678,-10.2126,-10.2122,-10.2119,-10.2117,0,0,-10.1259,-10.1411,-10.1462,-10.1531,-10.1654,-10.1777,-10.1954,-10.2101,-10.2187,-10.2293,-10.2441,-10.2646,-10.2583,-10.2663,-10.2658,-10.278,-10.3033,-10.2695,-10.2697,-10.2756,-10.3338,-10.3391,-10.344,-10.3002,-10.301,-10.3016,-10.333,0,-10.1561,-10.1876,-10.1884,-10.2171,-10.2319,-10.2268,-10.2422,-10.2513,-10.2549,-10.2678,-10.2715,-10.2861,-10.2766,-10.2815,-10.2934,-10.2977,-10.315,-10.2954,-10.3138,-10.3144,-10.3114,-10.3494,-10.355,-10.3842,-10.337,-10.3377,-10.3382,0,-10.1956,-10.2079,-10.2382,-10.2486,-10.2548,-10.2687,-10.2824,-10.2948,-10.305,-10.3067,-10.3159,-10.3136,-10.3315,-10.318,-10.3426,-10.3293,-10.3368,-10.3401,-10.3412,-10.343,-10.3279,-10.3523,-10.3935,-10.398,-10.3446,-10.3441,-10.3436,0,-10.2199,-10.2439,-10.2653,-10.2712,-10.2838,-10.2937,-10.2994,-10.3088,-10.3177,-10.3294,-10.3352,-10.3488,-10.3562,-10.3667,-10.3681,-10.3581,-10.3928,-10.3794,-10.3946,-10.3946,-10.4022,-10.4017,-10.4453,-10.407,-10.4069,-10.4068,-10.4067,0,-10.2536,-10.2724,-10.2764,-10.2895,-10.3104,-10.311,-10.3315,-10.3363,-10.3448,-10.3585,-10.3547,-10.3677,-10.3687,-10.382,-10.3831,-10.4033,-10.4066,-10.4084,-10.4085,-10.4089,-10.4087,-10.4138,-10.4118,-10.408,-10.4077,-10.4075,-10.4073,0,-10.2843,-10.2877,-10.3107,-10.3208,-10.3238,-10.3387,-10.3473,-10.3597,-10.3629,-10.3804,-10.3846,-10.3895,-10.405,-10.4074,-10.4254,-10.4261,-10.4504,-10.4483,-10.4471,-10.4469,-10.462,-10.4606,-10.5105,-10.5171,-10.4743,-10.4747,-10.4751,0,-10.3056,-10.32,-10.3318,-10.341,-10.3473,-10.362,-10.3711,-10.3722,-10.3818,-10.3946,-10.4055,-10.4207,-10.4328,-10.4577,-10.4627,-10.4765,-10.4748,-10.4913,-10.4768,-10.4767,-10.4751,-10.4743,-10.4757,-10.4941,-10.4946,-10.495,-10.4953,0,-10.3432,-10.3442,-10.3577,-10.3719,-10.383,-10.3941,-10.4046,-10.4122,-10.4146,-10.4256,-10.4416,-10.4511,-10.4697,-10.4847,-10.4984,-10.5039,-10.5001,-10.4998,-10.5041,-10.5046,-10.5034,-10.5043,-10.4549,-10.4987,-10.4983,-10.4981,-10.4979,-10.4978,-10.3699,-10.3825,-10.3929,-10.4081,-10.4161,-10.4261,-10.4384,-10.4433,-10.4567,-10.4722,-10.4719,-10.4894,-10.4992,-10.5173,-10.5237,-10.5373,-10.5319,-10.538,-10.5396,-10.5411,-10.5427,-10.5012,-10.5397,-10.5396,-10.5395,-10.5395,-10.5394,0,-10.4073,-10.4138,-10.4278,-10.4428,-10.4547,-10.4504,-10.4618,-10.4719,-10.4875,-10.4972,-10.5094,-10.5277,-10.5423,-10.5486,-10.5629,-10.5726,-10.5712,-10.5763,-10.5756,-10.5769,-10.5466,-10.5416,-10.5772,-10.5772,-10.5772,-10.5772,-10.5772,-10.5772,-10.4282,-10.4494,-10.4517,-10.4768,-10.483,-10.5005,-10.5074,-10.5165,-10.5242,-10.545,-10.5573,-10.5614,-10.5697,-10.5846,-10.5978,-10.5992,-10.6047,-10.6106,-10.6113,-10.5829,-10.579,-10.5754,-10.5706,-10.6118,-10.6119,-10.6405,-10.6408,-10.641]}]]